{"data":{"norad_id":53680,"intl_designator":"2022-105AJ","name":"STARLINK-4630","alt_names":[],"object_type":"PAYLOAD","status":"ACTIVE","operator":null,"country":"US","launch_date":"2022-08-31","launch_site_code":"AFWTR","launch_vehicle":null,"mission":null,"orbit_class":"UNKNOWN","rcs_meters":null,"size_class":null,"mass_kg":null,"dimensions":null,"purposes":["comms"],"wikipedia_slug":null,"has_3d_model":false,"image_url":null,"decayed_at":null,"tle_current":{"epoch":"2026-09-20T22:34:13.101888Z","epoch_age_seconds":43632,"freshness":"FRESH","line1":"1 53680U 22105AJ  26263.94042942  .00001168  00000+0  38501-4 0  9991","line2":"2 53680  97.2849 140.7277 0001877  88.2016 271.9442 15.33434187222812","mean_motion":15.33434187,"eccentricity":0.0001877,"inclination_deg":97.2849,"raan_deg":140.7277,"arg_perigee_deg":88.2016,"mean_anomaly_deg":271.9442,"bstar":3.8501e-5,"rev_number":22281,"period_min":93.906866835753,"perigee_km":464.29078174014,"apogee_km":466.85991135503,"semimajor_km":6843.7123465476,"source":"CELESTRAK","updated_at":"2026-09-21T09:00:32.978380Z"}}}